If you wish to contribute or participate in the discussions about articles you are invited to join SKYbrary as a registered user

 Actions

Argyle Airport

From SKYbrary Wiki

YARG
Airport
ICAO: YARG – IATA: GYL
Summary
Name Argyle Airport
Region Asia and Pacific
Territory Australia AU.gif
Location Argyle, Western Australia
Serving Argyle
Elevation 159.106 m
522 ft
522 ft159.106 m
Type small airport
Coordinates -16° 38' 12.84", 128° 27' 3.6"
Runways
Designator Length Width Surface ROPS
1/19 2300 m7,545.932 ft 30 m98.425 ft ASP /


METAR
Observation YARG 251200Z AUTO 36004KT 9999 // NCD 28/22 Q1007
Station Argyle Airport
Date/Time 25 February 2018 12:00:00
Wind direction 360°
Wind speed 04 kts
Lowest cloud amount no clouds detected
Temperature 28°C
Dew point 22°C
Humidity 69%
QNH 1007 hPa
Weather condition n/a